Find Starlink 32514

NORAD ID: 61965 Int'l Des: 2024-210 Owner: SPXS Country: US Constellation: starlink operational
LEOCIRCULAR

Live Position

Loading 3D Globe...

About Starlink 32514

Description loading...

Upcoming Passes

Passes for default location (London). Set your location on the main map for personalized predictions.

Altitude History

Loading altitude history...

Two-Line Element Set

1 61965U 24210G 26125.59099836 .00019376 00000-0 71142-3 0 9995
2 61965 42.9973 211.4352 0001482 280.9926 79.0759 15.27596335 83691
Epoch: May 5, 2026 • Age: 14 hours

Current Status

Altitude 483.5 km
Velocity 7.63 km/s
Sub-Earth Point 26.95°N, 50.46°W
Launch Date Nov 14, 2024
Age 1.4 years
Type internet

Technical Details

Classification Payload
Mass 730.00 kg
Dry Mass 700.00 kg
Total Mass 730.00 kg
Length 0.30 m
Diameter 4.10 m
Span 29.00 m
Shape Box + pan
Manufacturer SPXS
Bus Type Starlink V2M
Phase Status In Orbit
Owner/State SPXS/US

Most Searched